This is the latest recevied weather packets stored in our database for station/object AI5KP-13. If no packets are shown the sender has not sent any weather packets the latest 10 day(s).
| Time | Temp. | Humidity | Pressure | Rain* | Wind** | Luminosity | Snow |
|---|---|---|---|---|---|---|---|
| 1778005558 | 23.33° C | 78% | 1004.2 hPa | 0 mm | - | 373 W/m² | - |
| 1778005255 | 22.78° C | 78% | 1004.6 hPa | 0 mm | - | 346 W/m² | - |
| 1778004953 | 22.78° C | 80% | 1004.6 hPa | 0 mm | - | 437 W/m² | - |
| 1778004650 | 22.22° C | 81% | 1004.5 hPa | 0 mm | - | 301 W/m² | - |
| 1778004346 | 22.78° C | 80% | 1004.6 hPa | 0 mm | - | 344 W/m² | - |
| 1778004044 | 22.78° C | 79% | 1004.5 hPa | 0 mm | - | 434 W/m² | - |
| 1778003743 | 22.78° C | 80% | 1004.5 hPa | 0 mm | - | 379 W/m² | - |
| 1778003441 | 22.22° C | 81% | 1004.5 hPa | 0 mm | - | 348 W/m² | - |
| 1778003138 | 21.67° C | 82% | 1004.6 hPa | 0 mm | - | 317 W/m² | - |
| 1778002833 | 21.67° C | 81% | 1004.3 hPa | 0 mm | - | 351 W/m² | - |
| 1778002531 | 21.67° C | 81% | 1004.2 hPa | 0 mm | - | 393 W/m² | - |
| 1778002227 | 21.67° C | 82% | 1004.6 hPa | 0 mm | - | 344 W/m² | - |
| 1778001925 | 21.67° C | 82% | 1004.6 hPa | 0 mm | - | 318 W/m² | - |
| 1778001621 | 22.22° C | 80% | 1004.5 hPa | 0 mm | - | 367 W/m² | - |
| 1778001316 | 22.22° C | 80% | 1004.5 hPa | 0 mm | - | 424 W/m² | - |
| 1778001014 | 22.22° C | 80% | 1004.5 hPa | 0 mm | - | 548 W/m² | - |
| 1778000705 | 22.22° C | 79% | 1004.6 hPa | 0 mm | - | 487 W/m² | - |
| 1778000401 | 22.78° C | 77% | 1004.5 hPa | 0 mm | - | 452 W/m² | - |
| 1778000096 | 22.78° C | 78% | 1004.5 hPa | 0 mm | - | 426 W/m² | - |
| 1777999792 | 22.22° C | 79% | 1004.5 hPa | 0 mm | - | 409 W/m² | - |
| 1777999489 | 22.22° C | 81% | 1004.8 hPa | 0 mm | - | 364 W/m² | - |
| 1777999187 | 21.67° C | 80% | 1004.7 hPa | 0 mm | - | 332 W/m² | - |
| 1777998884 | 21.67° C | 80% | 1004.8 hPa | 0 mm | - | 373 W/m² | - |
| 1777998584 | 21.67° C | 81% | 1004.4 hPa | 0 mm | - | 346 W/m² | - |
| 1777998279 | 21.67° C | 81% | 1004.5 hPa | 0 mm | - | 289 W/m² | - |
* Rain latest hour (hover to see other rain measurements)
** Current wind speed in m/s (hover to see current wind gust speed)